,,,PA_Meas_PMT16A,,PR_Meas_QMR101_102,,RH_Meas_QMH101,,SR_Meas_QMS101,,TA_Meas_QMH101,,GenWind,,GenWind,
date,time,status,PA,status,PR,status,RH,status,SR,status,TA,status,DirAvg,status,SpdAvg,
2012-06-08, 00:00:04,VALID,1007.88,VALID,0,VALID,104,VALID,0,VALID,25.3117,VALID,48,VALID,0,
2012-06-08, 00:01:04,VALID,1007.87,VALID,0,VALID,104,VALID,0,VALID,25.2903,VALID,48,VALID,0,
2012-06-08, 00:02:04,VALID,1007.86,VALID,0,VALID,104,VALID,0,VALID,25.3117,VALID,48,VALID,0,
2012-06-08, 00:03:04,VALID,1007.89,VALID,0,VALID,104,VALID,0,VALID,25.3312,VALID,48,VALID,0,
2012-06-08, 00:04:04,VALID,1007.88,VALID,0,VALID,104,VALID,0,VALID,25.2903,VALID,48,VALID,0,
2012-06-08, 00:05:04,VALID,1007.87,VALID,0,VALID,104,VALID,0,VALID,25.3117,VALID,48,VALID,0,
2012-06-08, 00:06:04,VALID,1007.85,VALID,0,VALID,104,VALID,0,VALID,25.3098,VALID,48,VALID,0,
2012-06-08, 00:07:04,VALID,1007.83,VALID,0,VALID,104,VALID,0,VALID,25.3312,VALID,48,VALID,0,
2012-06-08, 00:08:04,VALID,1007.81,VALID,0,VALID,104,VALID,0,VALID,25.3507,VALID,48,VALID,0,
2012-06-08, 00:09:04,VALID,1007.8,VALID,0,VALID,104,VALID,0,VALID,25.3507,VALID,48,VALID,0,
2012-06-08, 00:10:04,VALID,1007.78,VALID,0,VALID,104,VALID,0,VALID,25.3507,VALID,48,VALID,0,
2012-06-08, 00:11:04,VALID,1007.77,VALID,0,VALID,104,VALID,0.112112,VALID,25.3098,VALID,48,VALID,0,
2012-06-08, 00:12:04,VALID,1007.79,VALID,0,VALID,104,VALID,0,VALID,25.3312,VALID,48,VALID,0,
2012-06-08, 00:13:04,VALID,1007.8,VALID,0,VALID,104,VALID,0,VALID,25.3507,VALID,48,VALID,0,
2012-06-08, 00:14:04,VALID,1007.78,VALID,0,VALID,104,VALID,0,VALID,25.3293,VALID,48,VALID,0,
2012-06-08, 00:15:04,VALID,1007.82,VALID,0,VALID,104,VALID,0,VALID,25.3293,VALID,48,VALID,0,
2012-06-08, 00:16:04,VALID,1007.82,VALID,0,VALID,104,VALID,0,VALID,25.3507,VALID,48,VALID,0,
2012-06-08, 00:17:04,VALID,1007.83,VALID,0,VALID,104,VALID,0.112112,VALID,25.3702,VALID,48,VALID,0,
2012-06-08, 00:18:04,VALID,1007.8,VALID,0,VALID,104,VALID,0,VALID,25.3702,VALID,48,VALID,0,
2012-06-08, 00:19:04,VALID,1007.78,VALID,0,VALID,104,VALID,0,VALID,25.3897,VALID,48,VALID,0,
2012-06-08, 00:20:04,VALID,1007.75,VALID,0,VALID,104,VALID,0,VALID,25.3702,VALID,48,VALID,0,
2012-06-08, 00:21:04,VALID,1007.73,VALID,0,VALID,104,VALID,0,VALID,25.3488,VALID,48,VALID,0,
2012-06-08, 00:22:04,VALID,1007.73,VALID,0,VALID,104,VALID,0,VALID,25.3702,VALID,48,VALID,0,
2012-06-08, 00:23:04,VALID,1007.74,VALID,0,VALID,104,VALID,0,VALID,25.3507,VALID,48,VALID,0,
2012-06-08, 00:24:04,VALID,1007.74,VALID,0,VALID,104,VALID,0,VALID,25.3702,VALID,48,VALID,0,
2012-06-08, 00:25:04,VALID,1007.74,VALID,0,VALID,104,VALID,0,VALID,25.3702,VALID,48,VALID,0,
2012-06-08, 00:26:04,VALID,1007.75,VALID,0,VALID,104,VALID,0,VALID,25.3683,VALID,48,VALID,0,
2012-06-08, 00:27:04,VALID,1007.78,VALID,0,VALID,104,VALID,0,VALID,25.3897,VALID,48,VALID,0,
2012-06-08, 00:28:04,VALID,1007.77,VALID,0,VALID,104,VALID,0,VALID,25.3702,VALID,48,VALID,0,
2012-06-08, 00:29:04,VALID,1007.76,VALID,0,VALID,104,VALID,0,VALID,25.3293,VALID,48,VALID,0,
2012-06-08, 00:30:04,VALID,1007.77,VALID,0,VALID,104,VALID,0,VALID,25.3117,VALID,48,VALID,0,
2012-06-08, 00:31:04,VALID,1007.77,VALID,0,VALID,104,VALID,0,VALID,25.3312,VALID,48,VALID,0,
2012-06-08, 00:32:04,VALID,1007.78,VALID,0,VALID,104,VALID,0,VALID,25.3117,VALID,48,VALID,0,
2012-06-08, 00:33:04,VALID,1007.78,VALID,0,VALID,104,VALID,0,VALID,25.2708,VALID,48,VALID,0,
2012-06-08, 00:34:04,VALID,1007.79,VALID,0,VALID,104,VALID,0,VALID,25.2922,VALID,48,VALID,0,
2012-06-08, 00:35:04,VALID,1007.77,VALID,0,VALID,104,VALID,0,VALID,25.2708,VALID,48,VALID,0,
2012-06-08, 00:36:04,VALID,1007.77,VALID,0,VALID,104,VALID,0,VALID,25.2727,VALID,48,VALID,0,
2012-06-08, 00:37:04,VALID,1007.76,VALID,0,VALID,104,VALID,0,VALID,25.2727,VALID,48,VALID,0,
2012-06-08, 00:38:04,VALID,1007.76,VALID,0,VALID,104,VALID,0,VALID,25.2727,VALID,48,VALID,0,
2012-06-08, 00:39:04,VALID,1007.75,VALID,0,VALID,104,VALID,0.112112,VALID,25.2513,VALID,48,VALID,0,
2012-06-08, 00:40:04,VALID,1007.74,VALID,0,VALID,104,VALID,0.112112,VALID,25.2513,VALID,48,VALID,0,
2012-06-08, 00:41:04,VALID,1007.75,VALID,0,VALID,104,VALID,0.112112,VALID,25.2318,VALID,48,VALID,0,
2012-06-08, 00:42:04,VALID,1007.75,VALID,0,VALID,104,VALID,0.112112,VALID,25.2123,VALID,48,VALID,0,
2012-06-08, 00:43:04,VALID,1007.75,VALID,0,VALID,104,VALID,0,VALID,25.2123,VALID,48,VALID,0,
2012-06-08, 00:44:04,VALID,1007.74,VALID,0,VALID,104,VALID,0.112112,VALID,25.2123,VALID,48,VALID,0,
2012-06-08, 00:45:04,VALID,1007.76,VALID,0,VALID,104,VALID,0,VALID,25.1928,VALID,48,VALID,0,
2012-06-08, 00:46:04,VALID,1007.77,VALID,0,VALID,104,VALID,0.112112,VALID,25.2142,VALID,48,VALID,0,
2012-06-08, 00:47:04,VALID,1007.76,VALID,0,VALID,104,VALID,0.112112,VALID,25.1928,VALID,48,VALID,0,
2012-06-08, 00:48:04,VALID,1007.74,VALID,0,VALID,104,VALID,0.112112,VALID,25.1928,VALID,48,VALID,0,
2012-06-08, 00:49:04,VALID,1007.72,VALID,0,VALID,104,VALID,0.112112,VALID,25.1733,VALID,48,VALID,0,
2012-06-08, 00:50:04,VALID,1007.73,VALID,0,VALID,104,VALID,0,VALID,25.1752,VALID,48,VALID,0,
2012-06-08, 00:51:04,VALID,1007.71,VALID,0,VALID,104,VALID,0,VALID,25.1538,VALID,48,VALID,0,
2012-06-08, 00:52:04,VALID,1007.74,VALID,0,VALID,104,VALID,0,VALID,25.1538,VALID,48,VALID,0,
2012-06-08, 00:53:04,VALID,1007.74,VALID,0,VALID,104,VALID,0.112112,VALID,25.1538,VALID,48,VALID,0,
2012-06-08, 00:54:04,VALID,1007.76,VALID,0,VALID,104,VALID,0.112112,VALID,25.1538,VALID,48,VALID,0,
2012-06-08, 00:55:04,VALID,1007.75,VALID,0,VALID,104,VALID,0,VALID,25.1343,VALID,48,VALID,0,
2012-06-08, 00:56:04,VALID,1007.73,VALID,0,VALID,104,VALID,0.112112,VALID,25.1148,VALID,48,VALID,0,
2012-06-08, 00:57:04,VALID,1007.7,VALID,0,VALID,104,VALID,0.112112,VALID,25.1148,VALID,48,VALID,0,
2012-06-08, 00:58:04,VALID,1007.68,VALID,0,VALID,104,VALID,0.112112,VALID,25.0759,VALID,48,VALID,0,
2012-06-08, 00:59:04,VALID,1007.66,VALID,0,VALID,104,VALID,0.112112,VALID,25.0778,VALID,48,VALID,0,
2012-06-08, 01:00:04,VALID,1007.63,VALID,0,VALID,104,VALID,0.112112,VALID,25.0564,VALID,48,VALID,0,
2012-06-08, 01:01:04,VALID,1007.63,VALID,0,VALID,104,VALID,0.112112,VALID,25.0564,VALID,48,VALID,0,
2012-06-08, 01:02:04,VALID,1007.61,VALID,0,VALID,104,VALID,0.112112,VALID,25.0564,VALID,48,VALID,0,
2012-06-08, 01:03:04,VALID,1007.63,VALID,0,VALID,104,VALID,0.112112,VALID,25.0369,VALID,48,VALID,0,
2012-06-08, 01:04:04,VALID,1007.61,VALID,0,VALID,104,VALID,0.112112,VALID,25.0174,VALID,48,VALID,0,
2012-06-08, 01:05:04,VALID,1007.64,VALID,0,VALID,104,VALID,0,VALID,25.0388,VALID,48,VALID,0,
2012-06-08, 01:06:04,VALID,1007.63,VALID,0,VALID,104,VALID,0,VALID,25.0388,VALID,48,VALID,0,
2012-06-08, 01:07:04,VALID,1007.62,VALID,0,VALID,104,VALID,0,VALID,25.0388,VALID,48,VALID,0,
2012-06-08, 01:08:04,VALID,1007.62,VALID,0,VALID,104,VALID,0.112112,VALID,25.0369,VALID,48,VALID,0,
2012-06-08, 01:09:04,VALID,1007.67,VALID,0,VALID,104,VALID,0.112112,VALID,25.0388,VALID,48,VALID,0,
2012-06-08, 01:10:04,VALID,1007.65,VALID,0,VALID,104,VALID,0,VALID,25.0778,VALID,48,VALID,0,
2012-06-08, 01:11:04,VALID,1007.68,VALID,0,VALID,104,VALID,0.112112,VALID,25.0369,VALID,48,VALID,0,
2012-06-08, 01:12:04,VALID,1007.68,VALID,0,VALID,104,VALID,0,VALID,25.0778,VALID,48,VALID,0,
2012-06-08, 01:13:04,VALID,1007.66,VALID,0,VALID,104,VALID,0.112112,VALID,25.0564,VALID,48,VALID,0,
2012-06-08, 01:14:04,VALID,1007.66,VALID,0,VALID,104,VALID,0,VALID,25.0583,VALID,48,VALID,0,
2012-06-08, 01:15:04,VALID,1007.62,VALID,0,VALID,104,VALID,0.112112,VALID,25.0369,VALID,48,VALID,0,
2012-06-08, 01:16:04,VALID,1007.61,VALID,0,VALID,104,VALID,0,VALID,25.0369,VALID,48,VALID,0,
2012-06-08, 01:17:04,VALID,1007.59,VALID,0,VALID,104,VALID,0.112112,VALID,25.0369,VALID,48,VALID,0,
2012-06-08, 01:18:04,VALID,1007.59,VALID,0,VALID,104,VALID,0.112112,VALID,25.0388,VALID,48,VALID,0,
2012-06-08, 01:19:04,VALID,1007.58,VALID,0,VALID,104,VALID,0.112112,VALID,25.0583,VALID,48,VALID,0,
2012-06-08, 01:20:04,VALID,1007.56,VALID,0,VALID,104,VALID,0.112112,VALID,25.0369,VALID,48,VALID,0,
2012-06-08, 01:21:04,VALID,1007.56,VALID,0,VALID,104,VALID,0.112112,VALID,25.0174,VALID,48,VALID,0,
2012-06-08, 01:22:04,VALID,1007.57,VALID,0,VALID,104,VALID,0.112112,VALID,25.0388,VALID,48,VALID,0,
2012-06-08, 01:23:04,VALID,1007.51,VALID,0,VALID,104,VALID,0.112112,VALID,25.0388,VALID,48,VALID,0,
2012-06-08, 01:24:04,VALID,1007.52,VALID,0,VALID,104,VALID,0,VALID,25.0388,VALID,48,VALID,0,
2012-06-08, 01:25:04,VALID,1007.52,VALID,0,VALID,104,VALID,0,VALID,25.0388,VALID,48,VALID,0,
2012-06-08, 01:26:04,VALID,1007.5,VALID,0,VALID,104,VALID,0,VALID,25.0583,VALID,48,VALID,0,
2012-06-08, 01:27:04,VALID,1007.51,VALID,0,VALID,104,VALID,0,VALID,25.0583,VALID,48,VALID,0,
2012-06-08, 01:28:04,VALID,1007.51,VALID,0,VALID,104,VALID,0,VALID,25.0583,VALID,48,VALID,0,
2012-06-08, 01:29:04,VALID,1007.55,VALID,0,VALID,104,VALID,0,VALID,25.0388,VALID,48,VALID,0,
2012-06-08, 01:30:04,VALID,1007.54,VALID,0,VALID,104,VALID,0,VALID,25.0583,VALID,48,VALID,0,
2012-06-08, 01:31:04,VALID,1007.59,VALID,0,VALID,104,VALID,0,VALID,25.0369,VALID,48,VALID,0.202344,
2012-06-08, 01:32:04,VALID,1007.59,VALID,0,VALID,104,VALID,0,VALID,25.0583,VALID,48,VALID,0.009375,
2012-06-08, 01:33:04,VALID,1007.59,VALID,0,VALID,104,VALID,0,VALID,25.0583,VALID,48,VALID,0,
2012-06-08, 01:34:04,VALID,1007.61,VALID,0,VALID,104,VALID,0,VALID,25.0369,VALID,48,VALID,0,
2012-06-08, 01:35:04,VALID,1007.59,VALID,0,VALID,104,VALID,0,VALID,25.0583,VALID,48,VALID,0,
2012-06-08, 01:36:04,VALID,1007.61,VALID,0,VALID,104,VALID,0,VALID,25.0369,VALID,48,VALID,0,
2012-06-08, 01:37:04,VALID,1007.6,VALID,0,VALID,104,VALID,0.112112,VALID,25.0369,VALID,48,VALID,0,
2012-06-08, 01:38:04,VALID,1007.61,VALID,0,VALID,104,VALID,0,VALID,25.0388,VALID,48,VALID,0,
2012-06-08, 01:39:04,VALID,1007.62,VALID,0,VALID,104,VALID,0,VALID,25.0583,VALID,48,VALID,0,
2012-06-08, 01:40:04,VALID,1007.63,VALID,0,VALID,104,VALID,0,VALID,25.0583,VALID,48,VALID,0,
2012-06-08, 01:41:04,VALID,1007.63,VALID,0,VALID,104,VALID,0,VALID,25.0583,VALID,48,VALID,0,
2012-06-08, 01:42:04,VALID,1007.62,VALID,0,VALID,104,VALID,0,VALID,25.0369,VALID,48,VALID,0,
2012-06-08, 01:43:04,VALID,1007.6,VALID,0,VALID,104,VALID,0,VALID,25.0583,VALID,48,VALID,0,
2012-06-08, 01:44:04,VALID,1007.65,VALID,0,VALID,104,VALID,0,VALID,25.0583,VALID,48,VALID,0,
2012-06-08, 01:45:04,VALID,1007.65,VALID,0,VALID,104,VALID,0,VALID,25.0583,VALID,48,VALID,0,
2012-06-08, 01:46:04,VALID,1007.64,VALID,0,VALID,104,VALID,0,VALID,25.0583,VALID,48,VALID,0,
2012-06-08, 01:47:04,VALID,1007.63,VALID,0,VALID,104,VALID,0,VALID,25.0583,VALID,48,VALID,0,
2012-06-08, 01:48:04,VALID,1007.63,VALID,0,VALID,104,VALID,0,VALID,25.0174,VALID,48,VALID,0.291016,
2012-06-08, 01:49:04,VALID,1007.62,VALID,0,VALID,104,VALID,0,VALID,25.0369,VALID,48,VALID,0.246484,
2012-06-08, 01:50:04,VALID,1007.65,VALID,0,VALID,104,VALID,0,VALID,25.0369,VALID,48,VALID,0.239063,
2012-06-08, 01:51:04,VALID,1007.65,VALID,0,VALID,104,VALID,0,VALID,25.0778,VALID,48,VALID,0.0316406,
2012-06-08, 01:52:04,VALID,1007.67,VALID,0,VALID,104,VALID,0,VALID,25.0778,VALID,48,VALID,0.071875,
2012-06-08, 01:53:04,VALID,1007.69,VALID,0,VALID,104,VALID,0,VALID,25.0778,VALID,48,VALID,0.186328,
2012-06-08, 01:54:04,VALID,1007.69,VALID,0,VALID,104,VALID,0,VALID,25.0973,VALID,48,VALID,0.0261719,
2012-06-08, 01:55:04,VALID,1007.68,VALID,0,VALID,104,VALID,0,VALID,25.0992,VALID,48,VALID,0.0574219,
2012-06-08, 01:56:04,VALID,1007.7,VALID,0,VALID,104,VALID,0,VALID,25.0778,VALID,48,VALID,0,
2012-06-08, 01:57:04,VALID,1007.7,VALID,0,VALID,104,VALID,0,VALID,25.0973,VALID,48,VALID,0,
2012-06-08, 01:58:04,VALID,1007.69,VALID,0,VALID,104,VALID,0,VALID,25.0778,VALID,48,VALID,0,
2012-06-08, 01:59:04,VALID,1007.69,VALID,0,VALID,104,VALID,0,VALID,25.0992,VALID,48,VALID,0,
2012-06-08, 02:00:04,VALID,1007.65,VALID,0,VALID,104,VALID,0,VALID,25.0778,VALID,48,VALID,0.191016,
2012-06-08, 02:01:04,VALID,1007.64,VALID,0,VALID,104,VALID,0,VALID,25.0778,VALID,48,VALID,0.239063,
2012-06-08, 02:02:04,VALID,1007.66,VALID,0,VALID,104,VALID,0,VALID,25.0388,VALID,48,VALID,0.3125,
2012-06-08, 02:03:04,VALID,1007.66,VALID,0,VALID,104,VALID,0,VALID,25.0369,VALID,48,VALID,0.346484,
2012-06-08, 02:04:04,VALID,1007.63,VALID,0,VALID,104,VALID,0,VALID,25.0388,VALID,48,VALID,0.222656,
2012-06-08, 02:05:04,VALID,1007.62,VALID,0,VALID,104,VALID,0,VALID,25.0193,VALID,48,VALID,0.217578,
2012-06-08, 02:06:04,VALID,1007.59,VALID,0,VALID,104,VALID,0,VALID,24.9979,VALID,48,VALID,0,
2012-06-08, 02:07:04,VALID,1007.57,VALID,0,VALID,104,VALID,0,VALID,25.0193,VALID,48,VALID,0,
2012-06-08, 02:08:04,VALID,1007.58,VALID,0,VALID,104,VALID,0,VALID,24.9803,VALID,48,VALID,0.303906,
2012-06-08, 02:09:04,VALID,1007.57,VALID,0,VALID,104,VALID,0,VALID,25.0017,VALID,48,VALID,0,
2012-06-08, 02:10:04,VALID,1007.55,VALID,0,VALID,104,VALID,0,VALID,24.9998,VALID,48,VALID,0.0546875,
2012-06-08, 02:11:04,VALID,1007.51,VALID,0,VALID,104,VALID,0,VALID,24.9803,VALID,48,VALID,0.226563,
2012-06-08, 02:12:04,VALID,1007.49,VALID,0,VALID,104,VALID,0,VALID,24.9589,VALID,48,VALID,0.237109,
2012-06-08, 02:13:04,VALID,1007.47,VALID,0,VALID,104,VALID,0,VALID,24.9394,VALID,48,VALID,0.199219,
2012-06-08, 02:14:04,VALID,1007.47,VALID,0,VALID,104,VALID,0,VALID,24.9413,VALID,48,VALID,0.233203,
2012-06-08, 02:15:04,VALID,1007.42,VALID,0,VALID,104,VALID,0,VALID,24.9608,VALID,48,VALID,0.163281,
2012-06-08, 02:16:04,VALID,1007.42,VALID,0,VALID,104,VALID,0,VALID,24.9413,VALID,48,VALID,0.180859,
2012-06-08, 02:17:04,VALID,1007.41,VALID,0,VALID,104,VALID,0,VALID,24.9413,VALID,48,VALID,0.122656,
2012-06-08, 02:18:04,VALID,1007.41,VALID,0,VALID,104,VALID,0,VALID,24.9413,VALID,48,VALID,0.148828,
2012-06-08, 02:19:04,VALID,1007.4,VALID,0,VALID,104,VALID,0,VALID,24.9608,VALID,48,VALID,0.0183594,
2012-06-08, 02:20:04,VALID,1007.4,VALID,0,VALID,104,VALID,0,VALID,24.9394,VALID,48,VALID,0.185156,
2012-06-08, 02:21:04,VALID,1007.4,VALID,0,VALID,104,VALID,0,VALID,24.9822,VALID,48,VALID,0,
2012-06-08, 02:22:04,VALID,1007.39,VALID,0,VALID,104,VALID,0,VALID,24.9608,VALID,48,VALID,0,
2012-06-08, 02:23:04,VALID,1007.39,VALID,0,VALID,104,VALID,0,VALID,24.9608,VALID,48,VALID,0,
2012-06-08, 02:24:04,VALID,1007.39,VALID,0,VALID,104,VALID,0,VALID,24.9608,VALID,48,VALID,0,
2012-06-08, 02:25:04,VALID,1007.39,VALID,0,VALID,104,VALID,0,VALID,24.9413,VALID,48,VALID,0.0261719,
2012-06-08, 02:26:04,VALID,1007.4,VALID,0,VALID,104,VALID,0,VALID,24.9413,VALID,48,VALID,0,
2012-06-08, 02:27:04,VALID,1007.4,VALID,0,VALID,104,VALID,0,VALID,24.9218,VALID,48,VALID,0,
2012-06-08, 02:28:04,VALID,1007.39,VALID,0,VALID,104,VALID,0,VALID,24.9218,VALID,48,VALID,0,
2012-06-08, 02:29:04,VALID,1007.37,VALID,0,VALID,104,VALID,0,VALID,24.9218,VALID,48,VALID,0,
2012-06-08, 02:30:04,VALID,1007.39,VALID,0,VALID,104,VALID,0,VALID,24.8828,VALID,48,VALID,0,
2012-06-08, 02:31:04,VALID,1007.36,VALID,0,VALID,104,VALID,0,VALID,24.9023,VALID,48,VALID,0,
2012-06-08, 02:32:04,VALID,1007.37,VALID,0,VALID,104,VALID,0,VALID,24.8828,VALID,48,VALID,0,
2012-06-08, 02:33:04,VALID,1007.37,VALID,0,VALID,104,VALID,0,VALID,24.8847,VALID,48,VALID,0,
2012-06-08, 02:34:04,VALID,1007.38,VALID,0,VALID,104,VALID,0,VALID,24.8828,VALID,48,VALID,0,
2012-06-08, 02:35:04,VALID,1007.39,VALID,0,VALID,104,VALID,0,VALID,24.8828,VALID,48,VALID,0,
2012-06-08, 02:36:04,VALID,1007.38,VALID,0,VALID,104,VALID,0,VALID,24.8633,VALID,48,VALID,0,
2012-06-08, 02:37:04,VALID,1007.38,VALID,0,VALID,104,VALID,0,VALID,24.8633,VALID,48,VALID,0.0371094,
2012-06-08, 02:38:04,VALID,1007.4,VALID,0,VALID,104,VALID,0,VALID,24.8633,VALID,48,VALID,0.261328,
2012-06-08, 02:39:04,VALID,1007.37,VALID,0,VALID,104,VALID,0,VALID,24.8828,VALID,66,VALID,0.669922,
2012-06-08, 02:40:04,VALID,1007.4,VALID,0,VALID,104,VALID,0,VALID,24.9413,VALID,101,VALID,0.807031,
2012-06-08, 02:41:04,VALID,1007.36,VALID,0,VALID,104,VALID,0,VALID,24.9998,VALID,105,VALID,1.28984,
2012-06-08, 02:42:04,VALID,1007.35,VALID,0,VALID,104,VALID,0,VALID,25.0388,VALID,92,VALID,0.939844,
2012-06-08, 02:43:04,VALID,1007.37,VALID,0,VALID,104,VALID,0,VALID,25.0583,VALID,95,VALID,0.880469,
2012-06-08, 02:44:04,VALID,1007.32,VALID,0,VALID,104,VALID,0,VALID,25.0992,VALID,95,VALID,0.576953,
2012-06-08, 02:45:04,VALID,1007.33,VALID,0,VALID,104,VALID,0,VALID,25.0973,VALID,99,VALID,0.934766,
2012-06-08, 02:46:04,VALID,1007.35,VALID,0,VALID,104,VALID,0,VALID,25.1167,VALID,96,VALID,0.865625,
2012-06-08, 02:47:04,VALID,1007.3,VALID,0,VALID,104,VALID,0,VALID,25.1362,VALID,87,VALID,0.689062,
2012-06-08, 02:48:04,VALID,1007.29,VALID,0,VALID,104,VALID,0,VALID,25.1343,VALID,81,VALID,0.901953,
2012-06-08, 02:49:04,VALID,1007.3,VALID,0,VALID,104,VALID,0,VALID,25.1557,VALID,83,VALID,0.714844,
2012-06-08, 02:50:04,VALID,1007.3,VALID,0,VALID,104,VALID,0,VALID,25.1362,VALID,84,VALID,0.580859,
2012-06-08, 02:51:04,VALID,1007.32,VALID,0,VALID,104,VALID,0,VALID,25.1362,VALID,85,VALID,0.250391,
2012-06-08, 02:52:04,VALID,1007.32,VALID,0,VALID,104,VALID,0,VALID,25.1557,VALID,85,VALID,0,
2012-06-08, 02:53:04,VALID,1007.32,VALID,0,VALID,104,VALID,0,VALID,25.1362,VALID,85,VALID,0,
2012-06-08, 02:54:04,VALID,1007.32,VALID,0,VALID,104,VALID,0,VALID,25.1362,VALID,85,VALID,0,
2012-06-08, 02:55:04,VALID,1007.33,VALID,0,VALID,104,VALID,0,VALID,25.1167,VALID,85,VALID,0,
2012-06-08, 02:56:04,VALID,1007.37,VALID,0,VALID,104,VALID,0,VALID,25.1167,VALID,85,VALID,0,
2012-06-08, 02:57:04,VALID,1007.39,VALID,0,VALID,104,VALID,0,VALID,25.0973,VALID,85,VALID,0,
2012-06-08, 02:58:04,VALID,1007.38,VALID,0,VALID,104,VALID,0,VALID,25.0973,VALID,85,VALID,0,
2012-06-08, 02:59:04,VALID,1007.36,VALID,0,VALID,104,VALID,0,VALID,25.0778,VALID,85,VALID,0,
2012-06-08, 03:00:04,VALID,1007.36,VALID,0,VALID,104,VALID,0,VALID,25.0778,VALID,85,VALID,0.00507812,
2012-06-08, 03:01:04,VALID,1007.35,VALID,0,VALID,104,VALID,0,VALID,25.0778,VALID,82,VALID,0.287109,
2012-06-08, 03:02:04,VALID,1007.34,VALID,0,VALID,104,VALID,0,VALID,25.0583,VALID,82,VALID,0.282031,
2012-06-08, 03:03:04,VALID,1007.36,VALID,0,VALID,104,VALID,0,VALID,25.0388,VALID,82,VALID,0.0796875,
2012-06-08, 03:04:04,VALID,1007.35,VALID,0,VALID,104,VALID,0,VALID,25.0193,VALID,81,VALID,0.448828,
2012-06-08, 03:05:04,VALID,1007.34,VALID,0,VALID,104,VALID,0,VALID,24.9608,VALID,81,VALID,0.235938,
2012-06-08, 03:06:04,VALID,1007.35,VALID,0,VALID,104,VALID,0,VALID,24.9803,VALID,77,VALID,0.763281,
2012-06-08, 03:07:04,VALID,1007.36,VALID,0,VALID,104,VALID,0,VALID,24.9608,VALID,69,VALID,0.747266,
2012-06-08, 03:08:04,VALID,1007.35,VALID,0,VALID,104,VALID,0,VALID,24.9803,VALID,69,VALID,0.901563,
2012-06-08, 03:09:04,VALID,1007.32,VALID,0,VALID,104,VALID,0,VALID,24.9803,VALID,64,VALID,0.893359,
2012-06-08, 03:10:04,VALID,1007.32,VALID,0,VALID,104,VALID,0,VALID,24.9803,VALID,64,VALID,0.758203,
2012-06-08, 03:11:04,VALID,1007.29,VALID,0,VALID,104,VALID,0,VALID,24.9803,VALID,84,VALID,0.675781,
2012-06-08, 03:12:04,VALID,1007.28,VALID,0,VALID,104,VALID,0,VALID,24.9998,VALID,70,VALID,0.954297,
2012-06-08, 03:13:04,VALID,1007.27,VALID,0,VALID,104,VALID,0,VALID,24.9998,VALID,69,VALID,0.570313,
2012-06-08, 03:14:04,VALID,1007.24,VALID,0,VALID,104,VALID,0,VALID,25.0193,VALID,70,VALID,0.514844,
2012-06-08, 03:15:04,VALID,1007.26,VALID,0,VALID,104,VALID,0,VALID,25.0193,VALID,70,VALID,0.499609,
2012-06-08, 03:16:04,VALID,1007.26,VALID,0,VALID,104,VALID,0,VALID,25.0193,VALID,70,VALID,0.533203,
2012-06-08, 03:17:04,VALID,1007.28,VALID,0,VALID,104,VALID,0,VALID,25.0388,VALID,70,VALID,0.458594,
2012-06-08, 03:18:04,VALID,1007.29,VALID,0,VALID,104,VALID,0,VALID,25.0388,VALID,70,VALID,0.232812,
2012-06-08, 03:19:04,VALID,1007.27,VALID,0,VALID,104,VALID,0,VALID,25.0602,VALID,70,VALID,0.314063,
2012-06-08, 03:20:04,VALID,1007.29,VALID,0,VALID,104,VALID,0,VALID,25.0388,VALID,70,VALID,0.2625,
2012-06-08, 03:21:04,VALID,1007.28,VALID,0,VALID,104,VALID,0,VALID,25.0388,VALID,70,VALID,0.105469,
2012-06-08, 03:22:04,VALID,1007.29,VALID,0,VALID,104,VALID,0,VALID,25.0174,VALID,70,VALID,0.434375,
2012-06-08, 03:23:04,VALID,1007.28,VALID,0,VALID,104,VALID,0,VALID,25.0388,VALID,70,VALID,0.292188,
2012-06-08, 03:24:04,VALID,1007.28,VALID,0,VALID,104,VALID,0,VALID,25.0388,VALID,70,VALID,0.271094,
2012-06-08, 03:25:04,VALID,1007.28,VALID,0,VALID,104,VALID,0,VALID,25.0193,VALID,70,VALID,0.146094,
2012-06-08, 03:26:04,VALID,1007.26,VALID,0,VALID,104,VALID,0,VALID,25.0193,VALID,70,VALID,0,
2012-06-08, 03:27:04,VALID,1007.25,VALID,0,VALID,104,VALID,0,VALID,24.9803,VALID,70,VALID,0.0777344,
2012-06-08, 03:28:04,VALID,1007.25,VALID,0,VALID,104,VALID,0,VALID,24.9589,VALID,70,VALID,0.0277344,
2012-06-08, 03:29:04,VALID,1007.23,VALID,0,VALID,104,VALID,0,VALID,24.9413,VALID,70,VALID,0.0222656,
2012-06-08, 03:30:04,VALID,1007.23,VALID,0,VALID,104,VALID,0,VALID,24.9413,VALID,70,VALID,0,
2012-06-08, 03:31:04,VALID,1007.25,VALID,0,VALID,104,VALID,0,VALID,24.9023,VALID,70,VALID,0.189453,
2012-06-08, 03:32:04,VALID,1007.22,VALID,0,VALID,104,VALID,0,VALID,24.9023,VALID,70,VALID,0.0882813,
2012-06-08, 03:33:04,VALID,1007.21,VALID,0,VALID,104,VALID,0,VALID,24.8809,VALID,70,VALID,0.145703,
2012-06-08, 03:34:04,VALID,1007.22,VALID,0,VALID,104,VALID,0,VALID,24.9023,VALID,70,VALID,0.229297,
2012-06-08, 03:35:04,VALID,1007.18,VALID,0,VALID,104,VALID,0,VALID,24.8828,VALID,70,VALID,0.26875,
2012-06-08, 03:36:04,VALID,1007.18,VALID,0,VALID,104,VALID,0,VALID,24.8633,VALID,53,VALID,0.491406,
2012-06-08, 03:37:04,VALID,1007.19,VALID,0,VALID,104,VALID,0,VALID,24.8633,VALID,45,VALID,0.45,
2012-06-08, 03:38:04,VALID,1007.2,VALID,0,VALID,104,VALID,0,VALID,24.8438,VALID,45,VALID,0.139453,
2012-06-08, 03:39:04,VALID,1007.19,VALID,0,VALID,104,VALID,0,VALID,24.8244,VALID,45,VALID,0.151562,
2012-06-08, 03:40:04,VALID,1007.21,VALID,0,VALID,104,VALID,0,VALID,24.8244,VALID,45,VALID,0,
2012-06-08, 03:41:04,VALID,1007.18,VALID,0,VALID,104,VALID,0,VALID,24.8244,VALID,45,VALID,0.137891,
2012-06-08, 03:42:04,VALID,1007.19,VALID,0,VALID,104,VALID,0,VALID,24.8244,VALID,45,VALID,0,
2012-06-08, 03:43:04,VALID,1007.17,VALID,0,VALID,104,VALID,0,VALID,24.8049,VALID,45,VALID,0,
2012-06-08, 03:44:04,VALID,1007.17,VALID,0,VALID,104,VALID,0,VALID,24.8049,VALID,45,VALID,0,
2012-06-08, 03:45:04,VALID,1007.15,VALID,0,VALID,104,VALID,0,VALID,24.8262,VALID,45,VALID,0,
2012-06-08, 03:46:04,VALID,1007.15,VALID,0,VALID,104,VALID,0,VALID,24.8049,VALID,45,VALID,0,
2012-06-08, 03:47:04,VALID,1007.14,VALID,0,VALID,104,VALID,0,VALID,24.7854,VALID,45,VALID,0,
2012-06-08, 03:48:04,VALID,1007.16,VALID,0,VALID,104,VALID,0,VALID,24.8049,VALID,45,VALID,0,
2012-06-08, 03:49:04,VALID,1007.13,VALID,0,VALID,104,VALID,0,VALID,24.7854,VALID,45,VALID,0,
2012-06-08, 03:50:04,VALID,1007.16,VALID,0,VALID,104,VALID,0,VALID,24.7854,VALID,45,VALID,0,
2012-06-08, 03:51:04,VALID,1007.16,VALID,0,VALID,104,VALID,0,VALID,24.7854,VALID,45,VALID,0,
2012-06-08, 03:52:04,VALID,1007.16,VALID,0,VALID,104,VALID,0,VALID,24.8049,VALID,45,VALID,0,
2012-06-08, 03:53:04,VALID,1007.21,VALID,0,VALID,104,VALID,0,VALID,24.8067,VALID,45,VALID,0,
2012-06-08, 03:54:04,VALID,1007.22,VALID,0,VALID,104,VALID,0.112112,VALID,24.8244,VALID,45,VALID,0,
2012-06-08, 03:55:04,VALID,1007.24,VALID,0,VALID,104,VALID,0,VALID,24.8438,VALID,45,VALID,0,
2012-06-08, 03:56:04,VALID,1007.24,VALID,0,VALID,104,VALID,0,VALID,24.8438,VALID,45,VALID,0,
2012-06-08, 03:57:04,VALID,1007.23,VALID,0,VALID,104,VALID,0,VALID,24.8225,VALID,45,VALID,0,
2012-06-08, 03:58:04,VALID,1007.24,VALID,0,VALID,104,VALID,0,VALID,24.8633,VALID,45,VALID,0,
2012-06-08, 03:59:04,VALID,1007.26,VALID,0,VALID,104,VALID,0.112112,VALID,24.8615,VALID,45,VALID,0,
2012-06-08, 04:00:04,VALID,1007.26,VALID,0,VALID,104,VALID,0,VALID,24.9004,VALID,45,VALID,0,
2012-06-08, 04:01:04,VALID,1007.23,VALID,0,VALID,104,VALID,0.112112,VALID,24.9004,VALID,45,VALID,0.0695312,
2012-06-08, 04:02:04,VALID,1007.26,VALID,0,VALID,104,VALID,0,VALID,24.9199,VALID,80,VALID,0.704297,
2012-06-08, 04:03:04,VALID,1007.24,VALID,0,VALID,104,VALID,0.112112,VALID,24.9803,VALID,85,VALID,0.496094,